When you browse on this site, cookies collect data to enhance your experience and personalize the content and advertising you see.
Visit our Privacy Policy to learn more. By continuing to use the site, you agree to this use of cookies and data.

Hourly Weather Czerwonki

Today, 4 July, Saturday

Time Temperature Precipitation Wind Pressure Humidity
00:00 +13°C° 0 mm 1 mps 747 mmHg 95%
01:00 +13°C° 0 mm 1 mps 747 mmHg 95%
02:00 +13°C° 0 mm 1 mps 747 mmHg 94%
03:00 +13°C° 0 mm 1 mps 747 mmHg 94%
04:00 +13°C° 0 mm 1 mps 747 mmHg 93%
05:00 +14°C° 0 mm 2 mps 748 mmHg 89%
06:00 +16°C° 0 mm 2 mps 748 mmHg 84%
07:00 +18°C° 0 mm 2 mps 748 mmHg 80%
08:00 +19°C° 0 mm 3 mps 748 mmHg 73%
09:00 +21°C° 0 mm 3 mps 748 mmHg 66%
10:00 +22°C° 0 mm 4 mps 748 mmHg 60%
11:00 +23°C° 0 mm 4 mps 748 mmHg 58%
12:00 +25°C° 0 mm 4 mps 748 mmHg 57%
13:00 +25°C° 0 mm 4 mps 747 mmHg 55%
14:00 +25°C° 0 mm 4 mps 747 mmHg 58%
15:00 +25°C° 0 mm 4 mps 747 mmHg 60%
16:00 +25°C° 0 mm 4 mps 746 mmHg 62%
17:00 +23°C° 0 mm 4 mps 746 mmHg 67%
18:00 +22°C° 0 mm 3 mps 746 mmHg 72%
19:00 +21°C° 0 mm 3 mps 746 mmHg 77%
20:00 +20°C° 0 mm 3 mps 746 mmHg 79%
21:00 +19°C° 0 mm 3 mps 746 mmHg 82%
22:00 +18°C° 0 mm 3 mps 746 mmHg 84%
23:00 +18°C° 0 mm 3 mps 746 mmHg 85%

Tomorrow, 5 July, Sunday

Time Temperature Precipitation Wind Pressure Humidity
00:00 +17°C° 0 mm 3 mps 746 mmHg 86%
01:00 +17°C° 0 mm 3 mps 746 mmHg 87%
02:00 +17°C° 0 mm 3 mps 745 mmHg 86%
03:00 +17°C° 0 mm 3 mps 745 mmHg 86%
04:00 +17°C° 0 mm 3 mps 745 mmHg 86%
05:00 +18°C° 0 mm 3 mps 745 mmHg 82%
06:00 +19°C° 0 mm 4 mps 745 mmHg 78%
07:00 +20°C° 0 mm 5 mps 745 mmHg 74%
08:00 +21°C° 0 mm 5 mps 745 mmHg 71%
09:00 +22°C° 0 mm 5 mps 745 mmHg 69%
10:00 +25°C° 0 mm 5 mps 745 mmHg 66%
11:00 +24°C° 0.2 mm 6 mps 745 mmHg 67%
12:00 +24°C° 0.2 mm 6 mps 745 mmHg 67%
13:00 +24°C° 0.2 mm 6 mps 744 mmHg 67%
14:00 +24°C° 0.1 mm 6 mps 744 mmHg 68%
15:00 +25°C° 0.1 mm 5 mps 744 mmHg 69%
16:00 +25°C° 0.1 mm 5 mps 744 mmHg 70%
17:00 +23°C° 0.3 mm 5 mps 743 mmHg 76%
18:00 +22°C° 0.3 mm 4 mps 743 mmHg 81%
19:00 +21°C° 0.3 mm 4 mps 743 mmHg 86%
20:00 +21°C° 0.1 mm 4 mps 743 mmHg 88%
21:00 +20°C° 0.1 mm 4 mps 742 mmHg 89%
22:00 +20°C° 0.1 mm 4 mps 742 mmHg 91%
23:00 +20°C° 0.1 mm 4 mps 742 mmHg 92%

Day after tomorrow, 6 July, Monday

Time Temperature Precipitation Wind Pressure Humidity
00:00 +19°C° 0.1 mm 4 mps 742 mmHg 93%
01:00 +19°C° 0.1 mm 4 mps 742 mmHg 94%
02:00 +19°C° 0 mm 4 mps 742 mmHg 94%
03:00 +19°C° 0 mm 4 mps 741 mmHg 94%
04:00 +19°C° 0 mm 3 mps 741 mmHg 94%
05:00 +19°C° 0 mm 3 mps 741 mmHg 92%
06:00 +19°C° 0 mm 4 mps 741 mmHg 90%
07:00 +20°C° 0 mm 4 mps 741 mmHg 88%
08:00 +19°C° 0.1 mm 4 mps 741 mmHg 87%
09:00 +19°C° 0.1 mm 4 mps 741 mmHg 87%
10:00 +19°C° 0.1 mm 4 mps 741 mmHg 86%
11:00 +20°C° 0 mm 4 mps 741 mmHg 81%
12:00 +21°C° 0 mm 5 mps 741 mmHg 76%
13:00 +22°C° 0 mm 6 mps 741 mmHg 72%
14:00 +22°C° 0.1 mm 6 mps 741 mmHg 69%
15:00 +22°C° 0.1 mm 6 mps 741 mmHg 67%
16:00 +22°C° 0.1 mm 6 mps 741 mmHg 64%
17:00 +21°C° 0.2 mm 5 mps 741 mmHg 71%
18:00 +19°C° 0.2 mm 4 mps 741 mmHg 78%
19:00 +18°C° 0.2 mm 3 mps 741 mmHg 85%
20:00 +16°C° 0.1 mm 2 mps 742 mmHg 86%
21:00 +15°C° 0.1 mm 2 mps 742 mmHg 87%
22:00 +14°C° 0.1 mm 1 mps 742 mmHg 88%
23:00 +13°C° 0 mm 2 mps 742 mmHg 90%

7 July, Tuesday

Time Temperature Precipitation Wind Pressure Humidity
00:00 +12°C° 0 mm 2 mps 743 mmHg 91%
01:00 +11°C° 0 mm 3 mps 743 mmHg 92%
02:00 +11°C° 0 mm 3 mps 743 mmHg 92%
03:00 +11°C° 0 mm 3 mps 743 mmHg 91%
04:00 +11°C° 0 mm 3 mps 744 mmHg 91%
05:00 +12°C° 0 mm 4 mps 744 mmHg 87%
06:00 +13°C° 0 mm 5 mps 744 mmHg 82%
07:00 +14°C° 0 mm 6 mps 745 mmHg 78%
08:00 +15°C° 0 mm 6 mps 745 mmHg 73%
09:00 +16°C° 0 mm 6 mps 745 mmHg 68%
10:00 +16°C° 0 mm 6 mps 746 mmHg 63%
11:00 +16°C° 0.1 mm 6 mps 746 mmHg 62%
12:00 +16°C° 0.1 mm 6 mps 746 mmHg 60%
13:00 +17°C° 0.1 mm 6 mps 746 mmHg 58%
14:00 +16°C° 0.1 mm 6 mps 746 mmHg 59%
15:00 +16°C° 0.1 mm 5 mps 746 mmHg 60%
16:00 +16°C° 0.1 mm 5 mps 747 mmHg 61%
17:00 +15°C° 0.1 mm 4 mps 747 mmHg 68%
18:00 +16°C° 0.1 mm 3 mps 747 mmHg 74%
19:00 +15°C° 0.1 mm 2 mps 747 mmHg 80%
20:00 +14°C° 0 mm 2 mps 747 mmHg 83%
21:00 +12°C° 0 mm 2 mps 747 mmHg 86%
22:00 +10°C° 0 mm 2 mps 747 mmHg 89%
23:00 +10°C° 0 mm 2 mps 747 mmHg 90%

8 July, Wednesday

Time Temperature Precipitation Wind Pressure Humidity
00:00 +10°C° 0 mm 3 mps 747 mmHg 90%
01:00 +9°C° 0 mm 3 mps 747 mmHg 90%
02:00 +9°C° 0 mm 3 mps 747 mmHg 89%
03:00 +9°C° 0 mm 3 mps 747 mmHg 89%
04:00 +8°C° 0 mm 4 mps 747 mmHg 89%
05:00 +10°C° 0.3 mm 4 mps 747 mmHg 87%
06:00 +10°C° 0.3 mm 5 mps 747 mmHg 86%
07:00 +12°C° 0.3 mm 5 mps 747 mmHg 85%
08:00 +13°C° 0.6 mm 6 mps 747 mmHg 81%
09:00 +14°C° 0.6 mm 6 mps 747 mmHg 78%
10:00 +15°C° 0.6 mm 7 mps 747 mmHg 74%
11:00 +15°C° 0.5 mm 7 mps 747 mmHg 72%
12:00 +16°C° 0.5 mm 7 mps 747 mmHg 70%
13:00 +16°C° 0.5 mm 7 mps 747 mmHg 68%
14:00 +16°C° 0.6 mm 6 mps 747 mmHg 70%
15:00 +16°C° 0.6 mm 6 mps 748 mmHg 71%
16:00 +16°C° 0.6 mm 6 mps 748 mmHg 73%
17:00 +15°C° 0.1 mm 5 mps 748 mmHg 77%
18:00 +14°C° 0.1 mm 4 mps 748 mmHg 80%
19:00 +14°C° 0.1 mm 3 mps 749 mmHg 84%
20:00 +13°C° 0 mm 2 mps 749 mmHg 87%
21:00 +12°C° 0 mm 2 mps 749 mmHg 90%
22:00 +10°C° 0 mm 2 mps 749 mmHg 93%
23:00 +10°C° 0 mm 2 mps 749 mmHg 92%

9 July, Thursday

Time Temperature Precipitation Wind Pressure Humidity
00:00 +10°C° 0 mm 2 mps 749 mmHg 91%
01:00 +9°C° 0 mm 2 mps 749 mmHg 91%
02:00 +9°C° 0 mm 2 mps 749 mmHg 90%
03:00 +9°C° 0 mm 2 mps 749 mmHg 90%
04:00 +9°C° 0 mm 2 mps 749 mmHg 90%
05:00 +11°C° 0 mm 3 mps 749 mmHg 84%
06:00 +13°C° 0 mm 3 mps 749 mmHg 79%
07:00 +14°C° 0 mm 4 mps 749 mmHg 74%
08:00 +17°C° 0 mm 4 mps 749 mmHg 68%
09:00 +19°C° 0 mm 5 mps 748 mmHg 63%
10:00 +20°C° 0 mm 5 mps 748 mmHg 58%
11:00 +20°C° 0 mm 5 mps 748 mmHg 59%
12:00 +21°C° 0 mm 5 mps 747 mmHg 59%
13:00 +21°C° 0 mm 5 mps 747 mmHg 60%
14:00 +20°C° 0 mm 4 mps 746 mmHg 65%
15:00 +18°C° 0 mm 4 mps 746 mmHg 70%
16:00 +17°C° 0 mm 3 mps 746 mmHg 76%
17:00 +16°C° 0.2 mm 3 mps 745 mmHg 81%
18:00 +16°C° 0.2 mm 3 mps 745 mmHg 87%
19:00 +15°C° 0.2 mm 4 mps 745 mmHg 93%
20:00 +14°C° 0.1 mm 3 mps 745 mmHg 94%
21:00 +14°C° 0.1 mm 3 mps 745 mmHg 95%
22:00 +14°C° 0.1 mm 3 mps 745 mmHg 96%
23:00 +13°C° 0 mm 3 mps 745 mmHg 96%
Show more